COSMOS 2303

导读

COSMOS 2303(宇宙2303)是独联体(CIS)于1994年12月26日发射的军用卫星,隶属于苏联/俄罗斯“宇宙”(Kosmos/COSMOS)卫星系列。该系列以保密军事任务为主,涵盖侦察、早期预警、技术试验等领域。作为冷战后独联体首批发射的军事卫星,它延续了苏联航天发展脉络,承担战略空间监测任务,至今仍在轨道运行,见证了俄罗斯航天从苏联解体后的过渡进程。

基本信息
目录编号:
23445
目录名称:
COSMOS 2303
国际标识:
1994-086E
轨道中心:
EARTH
卫星名称:
COSMOS 2303
卫星全名:
--
卫星状态:
在轨 (已飞行11585 天)
发射日期:
1994-12-26 UTC
国别 :
俄罗斯(独联体) (CIS)
星等 :
--
该卫星已列入 空间交会检测服务 Space Conjunction Data Service (SCDS) ,当前飞行风险评估等级: 无高风险
轨道信息
数据来源 国际轨道数据 AOE轨道数据
星历时间 2026-09-13T22:44:28+0800
15小时前
查看轨道信息
2026-09-13T00:00:00+0800
1天前
查看轨道信息
半长轴 7798.755km 7798.739km
偏心率 0.0011482 0.0012208
轨道倾角 82.572° 82.573°
近地点辐角 14.433° 15.326°
升交点赤经 289.752° 290.355°
平近点角 104.347° 125.629°
近地点 1411.663km 1411.081km
远地点 1429.573km 1430.123km
周期 114.235分钟 114.234分钟
每日圈数 12.605639 12.605678
详细信息
使用方式:
暂无
2D轨道图
3D轨道图
轨道高度分析图
轨道倾角分析图
轨道综合分析图
查看轨道综合分析图
与全量物体交会距离演化趋势 订阅飞行安全评估服务
与全量物体交会风险概率演化趋势 订阅飞行安全评估服务